RH
40 39 37 36 36 35 35 35 36 37 39 41 44 47 49 52 53 55 58 60 63 65 66 67 67 68 72 74 75 77 80 80 81 83 83 84 88 91 93 96 99 100 99 93 89 88 88 84 81 80 81 86 90 92 93 95 96 98 98 96 94 92 90
32 31 30 29 29 28 28 29 29 31 32 32 34 37 40 43 46 49 52 55 59 63 67 70 68 67 70 70 69 71 74 75 78 85 88 86 89 94 93 95 99 100 100 98 93 91 90 87 84 80 77 79 81 83 85 87 89 92 94 94 94 93 90
27 26 26 26 26 26 26 26 26 27 28 29 30 32 34 38 40 43 47 50 55 61 65 68 68 69 73 72 69 67 67 70 72 77 85 87 89 94 93 91 96 100 100 100 98 96 95 93 88 82 77 77 77 77 79 81 82 84 86 88 90 91 90
26 26 27 27 27 28 27 27 27 28 29 29 30 31 32 35 37 38 41 44 49 55 60 64 65 67 73 77 76 70 68 75 81 84 86 84 84 89 89 88 92 95 98 100 100 98 99 99 94 86 79 77 76 76 77 78 79 79 79 80 82 84 86
31 31 31 32 32 32 33 33 32 31 31 32 32 32 32 33 34 35 37 38 40 45 52 57 58 61 69 79 82 80 80 88 95 98 96 95 93 88 84 82 78 80 90 100 101 99 100 100 96 91 84 78 81 85 81 75 74 76 78 78 78 80 82
37 37 37 37 38 38 39 39 39 39 38 37 36 36 36 36 36 36 39 41 39 39 44 50 53 54 61 74 84 90 95 98 100 100 99 100 100 91 84 81 74 74 89 100 101 100 101 100 98 96 89 82 86 92 89 84 81 78 80 83 81 79 82
43 43 42 41 41 41 41 42 44 46 46 45 46 46 45 45 46 48 50 51 50 48 49 55 63 64 63 69 77 86 96 100 100 101 101 100 100 96 93 93 91 91 97 101 100 100 100 100 100 98 93 88 89 92 91 95 96 88 83 87 88 85 86
50 50 49 48 46 45 44 44 45 49 52 52 49 49 55 62 69 73 75 77 77 74 68 70 79 84 83 79 74 77 93 102 100 99 100 100 100 100 99 100 100 100 100 99 100 101 100 100 100 97 94 91 91 94 95 96 101 98 90 89 93 94 92
55 54 54 53 52 51 51 50 50 55 60 57 53 60 74 83 86 89 93 95 96 95 90 87 90 95 97 95 85 77 82 93 98 101 102 100 99 100 101 101 100 100 100 100 100 100 99 100 100 96 94 93 93 97 100 98 98 99 95 91 91 93 95
57 57 57 57 56 54 53 51 50 53 54 55 67 83 92 93 92 92 94 95 96 99 99 97 96 97 98 101 98 84 70 69 79 90 96 100 102 101 99 100 101 100 99 100 101 101 100 100 100 96 96 99 98 99 101 100 99 100 98 94 90 90 94
56 56 54 52 50 46 44 41 40 43 41 46 71 92 93 93 95 93 93 93 95 99 100 99 100 100 100 101 97 86 69 60 64 70 75 82 92 100 102 100 101 102 102 100 100 100 100 99 98 96 96 100 100 98 98 98 99 101 100 99 98 96 94
47 44 41 40 38 36 35 34 34 38 37 40 64 90 96 96 97 95 95 96 97 100 100 98 98 99 100 99 94 86 76 70 68 67 66 65 71 84 98 102 101 99 99 101 101 99 100 101 99 98 98 99 100 99 97 95 96 99 100 101 101 99 96
35 34 33 34 34 33 33 33 33 37 37 37 58 89 101 99 99 100 100 100 99 99 97 95 95 95 96 96 93 88 83 79 77 74 72 70 66 68 79 93 101 96 89 93 101 101 100 99 99 101 100 94 92 93 92 93 96 99 100 100 100 100 100
32 33 33 33 35 34 33 34 34 36 37 39 60 91 101 99 101 101 100 101 99 98 96 95 95 95 95 95 94 91 87 84 82 78 78 81 78 68 62 70 88 95 86 84 94 101 102 100 98 101 97 84 81 88 92 96 100 101 100 100 100 100 98
33 33 34 34 35 34 33 33 34 37 38 42 65 93 101 99 101 100 99 101 99 98 98 96 94 93 93 93 93 93 92 88 83 81 85 92 90 79 64 56 68 87 91 85 87 92 94 90 85 85 86 81 85 95 98 99 101 100 100 101 100 99 96
34 35 35 34 35 35 34 34 36 39 41 48 73 98 101 99 101 101 101 102 99 98 96 92 92 91 89 91 90 89 89 88 85 87 94 100 98 90 77 60 57 79 98 97 93 93 91 90 88 89 93 95 98 102 101 100 101 100 99 101 100 98 96
35 35 36 35 35 36 36 36 37 42 45 55 80 102 103 100 102 100 97 94 90 90 89 88 90 90 90 92 90 87 87 87 91 97 100 101 101 99 95 77 59 73 98 102 98 98 96 95 95 94 95 96 95 95 96 98 99 97 97 101 100 95 91
37 37 36 37 37 38 39 39 39 44 48 54 73 95 101 98 96 92 88 85 83 84 87 89 89 88 89 89 86 85 87 88 93 100 101 100 100 100 103 95 75 73 89 95 93 93 92 89 87 85 81 78 75 76 80 87 94 94 96 102 101 97 95
38 38 37 38 40 40 42 42 42 45 48 52 63 79 88 88 87 87 86 86 89 92 94 93 87 81 81 82 81 82 86 88 93 100 102 101 101 100 101 100 91 84 87 91 93 95 95 95 94 92 86 78 71 70 72 80 89 92 96 101 100 99 101
41 41 40 41 42 42 43 46 46 46 49 54 59 69 78 82 86 89 88 91 97 100 101 100 93 82 78 79 78 79 85 88 92 99 101 99 100 101 99 98 98 96 93 93 95 99 100 100 101 100 97 88 81 79 78 78 84 92 98 103 102 98 101
43 44 42 41 42 43 45 49 52 51 51 53 57 64 75 83 87 89 89 94 100 102 101 102 99 89 82 80 78 79 86 92 95 99 102 101 100 101 100 100 102 101 98 97 99 102 102 101 101 101 99 95 90 87 83 80 82 88 95 100 100 97 98
45 46 45 44 44 47 49 53 57 56 52 51 54 61 71 81 85 87 90 96 102 102 100 102 101 93 85 81 80 83 91 99 100 100 100 100 100 101 99 100 102 100 98 99 100 102 101 100 100 100 99 98 93 87 83 81 80 81 84 91 96 97 100
48 53 55 52 48 49 52 56 59 60 56 52 54 60 69 77 82 84 87 91 96 97 96 97 97 93 86 81 79 82 93 101 101 100 100 99 100 102 101 101 102 100 98 98 99 101 101 99 99 100 99 96 91 86 84 83 81 80 82 86 91 93 95
58 66 71 67 58 50 50 55 59 60 58 54 54 59 66 73 79 82 85 89 91 92 93 93 93 93 91 86 80 82 93 102 100 100 101 96 94 97 97 97 100 101 100 101 101 100 101 99 96 97 97 92 88 86 85 83 80 81 84 86 88 89 90
73 78 82 81 71 56 50 56 60 59 58 57 56 58 63 71 79 83 87 91 93 92 93 93 93 94 94 90 85 84 92 100 100 100 102 95 84 81 82 83 87 91 94 98 99 98 100 98 93 91 91 88 86 88 87 84 83 84 87 89 89 90 92
82 85 86 84 78 66 59 61 65 63 61 61 62 60 62 72 83 88 90 92 92 91 92 93 94 96 94 90 86 84 88 97 100 100 102 100 89 80 79 82 86 89 90 92 92 92 92 88 83 83 85 87 91 94 92 88 89 91 92 91 93 94 92
84 87 88 84 80 74 69 69 73 71 67 69 75 74 72 79 90 95 96 96 95 94 94 93 93 94 94 94 92 88 87 95 101 101 101 100 91 83 84 89 93 97 98 96 95 95 93 89 87 90 94 96 100 99 91 87 93 98 96 94 99 102 96
84 83 83 83 82 82 81 81 80 78 76 82 91 94 92 95 99 99 100 101 99 98 98 96 96 95 95 95 96 91 87 89 95 99 101 99 91 86 88 92 97 101 100 97 97 100 101 99 99 101 100 99 99 94 85 83 92 99 98 98 101 102 99
83 76 74 79 81 87 95 92 82 81 88 96 100 101 101 102 102 101 102 102 101 102 102 101 100 100 99 98 98 96 93 90 89 91 92 92 90 90 91 93 95 95 92 90 94 99 100 100 100 99 96 95 96 92 84 84 93 98 100 102 103 100 98
77 71 73 79 77 80 91 93 85 87 98 103 102 101 101 101 101 101 101 101 101 103 103 102 102 102 101 101 100 99 97 95 93 91 87 84 84 87 88 89 90 89 88 89 92 95 96 96 97 96 96 97 99 96 88 87 95 101 102 101 101 100 98
74 70 73 78 75 73 81 89 92 94 96 99 101 102 101 101 101 101 101 101 102 104 104 104 103 102 101 101 100 99 97 95 96 96 92 88 87 87 88 90 89 89 90 92 93 94 95 96 98 99 99 100 102 101 96 94 97 102 104 101 100 101 99
77 75 74 75 77 77 78 82 89 93 96 99 103 103 102 102 102 102 101 101 102 104 104 103 102 101 101 101 101 99 96 95 96 96 96 96 95 93 92 93 92 91 93 95 95 95 97 98 98 100 101 102 103 104 103 101 100 101 103 102 100 101 100
78 78 77 78 80 81 80 80 85 92 97 101 102 101 100 101 102 102 102 102 103 103 102 101 101 101 101 101 100 98 96 95 95 95 96 98 99 96 93 92 93 95 97 97 96 97 98 99 100 101 103 105 105 103 103 102 100 100 103 104 102 100 100
84 83 84 85 85 86 85 85 88 90 92 93 94 93 92 93 99 103 102 101 102 103 102 100 100 100 100 101 100 98 96 96 95 95 96 97 97 96 92 90 93 96 96 94 95 97 98 99 100 102 104 106 105 102 102 102 101 100 102 103 101 100 100
93 90 89 91 91 90 88 88 89 89 89 89 90 89 90 95 102 104 101 99 99 100 101 102 102 102 101 102 101 99 98 97 96 95 96 95 95 94 93 92 93 94 93 92 94 95 96 97 99 101 104 106 105 102 101 101 101 101 102 102 101 101 100
96 94 94 94 93 90 88 88 88 88 88 88 89 92 97 103 104 102 100 100 99 99 100 102 102 103 103 103 103 103 102 101 99 98 97 97 97 97 97 96 95 93 91 91 93 94 95 97 99 101 103 106 104 102 101 102 102 102 104 104 104 103 101
Wind_Speed
9 9 8 8 7 7 7 7 8 8 8 8 8 8 8 9 8 8 8 9 9 9 10 11 11 11 11 11 11 11 11 11 11 11 11 11 11 12 12 13 12 8 11 19 19 17 21 21 21 20 19 18 18 16 15 14 12 13 14 14 14 14 14
9 8 7 7 7 7 7 7 7 7 8 8 8 8 8 9 9 10 10 10 11 11 11 12 12 12 13 13 13 13 13 13 12 11 12 11 11 12 11 10 12 11 10 16 20 20 21 22 21 22 22 21 21 20 19 17 15 14 14 14 15 14 14
7 7 6 6 6 6 6 6 7 7 8 8 8 8 9 9 10 11 11 12 12 12 12 12 13 13 13 14 14 14 14 14 13 12 12 12 11 12 13 11 11 13 12 14 19 19 19 21 21 22 23 21 21 22 21 21 19 17 16 15 15 15 14
7 6 5 5 5 6 6 6 7 7 8 8 9 9 9 10 10 11 12 13 13 13 13 14 14 13 13 14 15 14 14 13 13 13 12 13 13 13 15 15 13 14 14 15 18 19 17 19 21 22 22 21 22 21 20 20 20 19 19 17 16 17 16
6 6 5 6 6 6 7 7 8 8 8 8 9 10 11 11 11 12 12 13 14 14 13 13 14 14 13 13 14 14 14 13 13 13 13 13 14 14 15 17 17 17 16 15 17 19 18 18 20 21 21 19 20 20 20 19 19 18 18 17 16 15 15
6 6 6 7 7 7 8 8 8 9 9 9 10 11 11 12 12 12 13 14 15 15 14 14 13 14 13 13 14 14 13 13 13 13 13 13 14 15 16 18 18 17 17 16 16 18 19 19 18 19 21 18 16 18 19 19 18 17 14 14 14 13 12
7 7 7 8 8 8 8 8 8 9 9 10 11 11 12 12 12 13 14 15 16 16 16 16 15 14 14 13 13 13 13 13 13 13 14 14 15 16 17 17 17 16 15 16 16 16 16 18 17 17 19 18 15 15 15 13 14 15 14 13 12 11 10
7 8 8 8 9 9 9 9 9 9 10 10 11 12 12 13 13 15 15 15 16 17 17 18 17 16 15 14 14 13 11 12 13 14 15 15 15 16 17 16 15 15 15 15 15 14 14 16 17 16 16 16 15 14 12 11 12 13 15 14 12 10 10
7 8 8 9 9 10 10 11 11 10 11 12 12 12 13 14 15 15 16 16 16 17 18 18 18 17 16 16 15 14 12 12 12 14 15 16 16 16 16 15 14 14 14 13 13 13 13 13 13 13 14 15 14 13 13 13 13 13 13 13 13 11 8
8 9 9 9 10 10 11 12 12 12 13 14 13 13 14 15 16 16 16 17 18 18 18 17 17 18 17 15 15 16 16 14 13 13 14 15 15 15 15 15 15 14 13 12 12 12 12 11 10 11 12 13 13 12 12 13 14 14 13 13 12 9 7
8 9 10 11 11 12 13 13 14 14 15 14 13 14 15 16 17 18 18 18 19 18 18 17 17 17 17 17 18 20 19 17 15 15 15 15 15 15 15 16 16 15 14 13 13 13 12 11 11 11 11 12 13 13 13 14 15 14 13 12 9 6 6
10 10 11 12 13 14 15 16 16 16 17 16 14 14 15 16 17 19 19 19 18 18 18 19 19 19 19 20 21 22 21 19 18 18 17 18 17 16 16 16 17 17 16 16 16 16 14 13 13 14 13 12 14 15 17 18 17 15 13 11 9 8 8
11 12 13 14 16 17 18 19 19 19 19 18 16 14 15 16 17 19 19 19 19 20 20 20 21 22 21 21 21 21 21 21 21 21 20 20 19 18 17 17 17 17 18 18 18 19 19 17 16 16 16 16 18 19 19 19 18 16 14 13 12 12 12
14 15 15 16 18 19 20 20 21 21 20 19 17 15 15 16 18 19 20 20 20 21 22 22 22 23 23 22 20 20 21 22 23 24 23 22 20 20 18 18 18 17 18 18 18 19 21 20 19 18 18 17 16 17 18 17 17 16 16 16 16 16 18
15 16 17 18 19 20 21 21 21 21 21 19 17 15 15 17 18 19 19 20 20 21 22 22 22 23 24 23 22 20 20 22 23 24 25 23 21 20 19 19 19 17 17 17 17 18 19 19 18 17 16 13 12 13 15 14 14 15 15 16 17 18 19
16 17 19 19 20 22 22 22 21 20 20 18 16 15 16 17 17 18 19 20 20 20 20 20 20 22 23 23 23 22 21 21 22 23 23 23 21 20 20 20 19 17 16 17 17 17 17 16 14 13 12 11 11 12 12 12 13 16 15 15 14 13 14
17 18 20 21 21 22 23 23 21 19 18 17 15 15 16 17 18 19 20 20 20 19 19 18 17 18 20 22 22 21 21 20 20 21 21 21 21 20 20 21 18 16 17 17 16 16 15 14 13 13 14 15 15 15 15 15 15 16 15 12 9 8 10
19 19 20 21 21 21 22 22 20 18 17 16 15 15 16 17 19 20 21 21 21 20 19 18 16 16 17 20 21 20 20 18 18 19 19 19 20 20 21 21 18 16 17 17 15 15 15 14 15 14 15 17 17 17 16 15 14 14 13 12 9 8 10
20 21 21 21 21 21 21 22 20 18 17 17 16 15 16 17 18 21 22 21 22 22 20 18 17 16 16 18 18 18 18 17 15 17 18 18 19 20 21 20 18 17 17 17 16 15 15 15 15 14 14 14 14 13 12 12 12 12 12 11 11 10 8
20 22 22 22 22 21 20 21 20 18 17 17 16 15 15 16 18 20 22 22 22 22 21 20 18 17 15 16 17 17 17 16 15 15 17 17 18 20 20 19 17 16 16 17 17 16 15 15 15 14 14 14 14 13 12 11 11 11 11 11 12 11 10
20 22 23 23 23 23 21 20 20 18 17 16 16 16 15 16 18 19 21 23 23 21 20 20 19 18 16 15 16 18 19 18 16 15 15 17 18 19 18 17 16 16 15 17 18 17 16 16 15 15 15 15 15 15 14 12 10 10 12 12 13 14 14
21 23 24 24 24 23 22 20 20 19 18 17 18 18 17 17 18 18 19 23 23 21 21 21 21 21 19 16 16 18 19 19 16 15 16 17 17 16 16 15 16 16 16 17 18 17 16 16 15 16 16 16 16 16 15 14 12 11 12 13 14 15 15
22 23 25 26 26 24 23 22 21 21 21 20 19 20 19 18 18 18 18 22 24 24 24 24 23 22 21 19 18 19 19 18 16 16 16 15 14 14 14 14 15 15 15 16 16 16 16 17 17 18 18 18 17 17 16 15 14 12 12 12 13 15 16
22 23 24 26 27 27 26 24 24 23 23 22 20 20 20 19 18 17 17 20 23 24 24 24 23 21 20 20 20 20 19 17 16 16 15 14 12 12 12 13 14 15 15 15 15 16 17 19 20 20 20 20 19 18 16 16 15 13 12 12 13 14 16
22 22 23 25 27 29 29 27 26 26 26 24 21 21 20 20 19 17 17 19 21 22 22 22 22 22 21 20 21 21 19 18 17 17 17 15 14 13 13 13 14 15 16 16 17 18 20 22 23 23 22 20 19 17 17 16 16 15 13 13 13 14 14
22 22 23 24 26 29 30 29 28 28 28 25 23 21 21 21 20 18 17 19 21 22 22 23 23 23 23 23 22 21 20 20 19 19 19 18 18 17 16 15 15 15 16 17 18 20 21 22 23 22 20 19 18 18 18 18 17 17 15 13 13 14 14
22 22 22 24 26 28 30 30 29 29 29 26 23 22 22 22 22 21 21 22 23 23 24 25 25 24 24 24 23 22 22 21 20 20 20 20 20 19 19 18 18 17 18 18 20 21 21 21 21 20 20 20 19 20 20 19 18 18 16 13 12 14 15
23 23 23 25 26 27 29 30 29 28 27 24 22 22 23 23 23 23 23 24 24 25 26 27 27 26 25 25 24 24 23 22 21 21 21 22 22 21 21 20 20 19 19 20 21 21 22 22 22 22 22 21 21 21 20 17 16 17 16 14 12 12 13
24 25 24 25 26 25 26 29 30 27 24 22 21 22 23 24 24 24 24 24 24 25 27 26 26 26 25 24 24 23 24 23 22 22 22 22 23 23 22 21 21 21 21 22 21 21 22 22 22 22 22 20 20 19 17 15 15 16 15 13 12 12 13
23 23 22 25 28 26 26 30 33 30 26 24 23 23 23 24 24 24 24 24 23 23 24 24 23 23 23 22 22 22 23 23 23 22 23 23 23 23 22 22 22 22 22 21 20 20 20 20 20 21 20 19 18 18 16 14 14 15 14 13 13 13 13
20 21 21 23 27 29 29 31 32 30 29 27 25 24 23 23 23 23 23 23 22 22 22 21 21 22 21 21 21 22 23 23 23 23 24 24 24 23 23 22 23 22 21 20 19 19 19 19 19 19 19 18 18 18 17 15 14 14 13 14 14 14 15
21 22 22 22 25 28 31 32 30 29 28 26 25 24 24 24 24 24 23 22 22 23 23 21 21 22 21 21 21 22 23 23 23 24 24 24 24 24 24 23 23 22 20 18 18 18 19 19 19 19 19 18 18 17 16 16 15 15 14 14 14 15 16
21 21 22 23 24 26 29 31 30 29 28 27 26 25 25 25 24 23 22 20 21 23 23 21 21 22 22 22 23 25 24 24 24 25 25 24 24 26 26 26 23 21 20 19 19 19 19 19 19 19 19 19 18 17 17 16 16 16 15 15 15 16 16
21 21 22 23 25 26 28 29 29 28 28 27 26 25 24 24 24 23 21 20 21 23 22 21 21 22 23 23 25 26 26 26 26 26 26 26 26 27 27 26 24 22 21 20 20 20 20 20 20 19 19 19 18 17 17 17 17 17 16 15 16 16 16
24 23 23 24 25 27 28 28 27 27 26 25 24 23 22 22 23 23 21 21 22 23 23 22 22 23 24 24 25 27 27 27 28 28 27 27 27 27 27 26 24 23 22 21 20 20 20 20 20 19 20 19 19 18 18 18 18 18 18 17 17 17 17
28 27 26 25 26 27 27 27 25 25 25 24 23 22 21 21 22 22 21 21 23 23 24 25 25 25 26 26 26 27 27 28 28 29 29 28 28 27 27 26 25 24 23 22 21 21 21 20 20 20 20 19 19 19 19 19 19 18 18 18 18 18 18
Wind_Direction
84 75 67 60 50 44 37 29 21 15 10 5 3 358 352 350 346 343 340 339 339 338 338 337 337 338 337 335 333 332 330 327 325 325 323 322 323 318 317 319 313 297 295 302 305 309 310 313 315 314 314 316 315 313 314 318 323 329 330 332 336 335 333
81 73 64 56 47 36 28 22 13 5 359 353 351 347 341 338 335 333 333 333 334 336 337 334 332 333 333 331 331 331 331 328 325 326 323 322 327 324 319 322 317 309 302 302 307 311 311 313 315 313 313 315 313 312 312 311 312 318 324 328 331 333 333
81 74 63 51 40 30 19 12 5 356 350 344 340 337 334 331 329 329 328 328 330 330 329 327 325 326 328 327 325 327 329 328 324 324 321 317 320 320 315 315 317 314 309 303 306 312 314 314 315 314 314 315 313 312 310 308 307 307 310 315 319 322 323
79 70 57 44 30 18 8 0 355 350 343 338 334 331 328 327 325 324 323 322 322 321 320 319 319 320 322 322 321 321 322 326 326 325 325 321 320 321 316 313 312 310 309 305 304 308 311 313 313 313 314 315 315 314 311 309 309 307 307 308 308 311 313
76 64 49 39 24 13 4 355 349 343 338 333 329 326 325 324 322 319 317 315 313 312 310 311 312 314 316 316 317 318 318 321 324 324 326 326 325 325 320 315 312 309 308 305 301 304 308 311 312 311 313 317 318 317 317 315 313 314 314 311 309 309 308
74 61 48 38 25 17 8 359 351 343 338 334 328 325 322 319 316 313 310 308 308 307 307 307 309 310 312 311 311 315 317 317 318 317 318 320 321 322 319 315 314 313 311 305 299 301 305 307 311 311 312 318 320 317 320 320 319 321 324 322 320 316 312
62 50 40 31 21 13 4 357 352 343 337 333 327 324 321 318 314 309 306 306 306 307 308 308 309 308 309 308 305 307 312 314 312 309 306 307 310 314 316 316 315 314 310 306 303 301 301 305 309 309 311 317 321 317 318 324 328 330 331 333 333 328 325
45 34 26 18 9 2 356 350 345 338 333 328 323 321 319 318 317 315 313 311 308 307 307 307 307 307 307 306 302 301 306 308 306 302 299 300 302 307 311 313 312 310 306 304 301 298 300 303 306 310 315 319 324 324 323 327 332 330 326 329 332 329 328
26 19 12 6 358 351 346 340 336 333 327 323 322 322 321 318 317 316 313 310 307 303 302 302 303 304 304 303 301 301 301 299 296 295 295 297 298 299 303 305 304 302 301 300 297 296 299 302 302 309 315 317 322 325 323 324 324 321 319 321 323 321 318
12 6 358 352 345 339 333 329 327 324 320 320 321 318 314 310 309 308 306 304 301 297 296 296 297 299 301 298 297 300 303 300 294 291 289 290 292 291 291 295 296 294 292 291 290 291 296 298 297 305 315 321 325 324 325 331 333 327 321 320 320 317 311
358 353 347 340 334 330 328 326 325 323 321 321 317 310 306 304 302 301 300 298 295 292 292 293 293 294 295 292 295 302 306 305 300 298 295 290 284 280 278 282 285 285 283 282 282 283 286 289 292 297 307 317 321 322 324 330 334 332 328 325 321 314 310
348 346 342 336 333 330 329 330 330 328 326 324 318 309 303 300 297 295 293 291 290 288 289 290 290 290 289 290 296 302 305 304 302 300 299 296 289 277 269 270 275 276 274 273 274 276 275 274 281 287 291 297 305 312 316 316 318 321 324 322 314 300 299
347 346 343 338 335 333 331 332 332 329 328 326 321 311 303 298 293 289 287 286 286 286 287 288 288 289 289 290 294 297 299 300 300 300 299 298 295 284 271 266 268 272 271 267 265 268 269 268 273 278 279 283 290 298 304 305 305 307 306 305 302 296 296
347 345 342 338 335 332 331 333 332 329 329 327 322 314 304 296 288 284 284 283 283 284 285 286 288 290 292 293 291 292 293 294 297 300 300 298 295 291 281 270 265 269 273 267 260 261 266 269 272 275 279 285 287 290 294 293 293 295 294 292 290 290 292
344 340 338 336 333 331 331 332 332 330 328 327 322 313 303 294 288 286 286 285 285 285 285 286 288 289 290 291 291 289 289 291 294 297 298 296 293 289 285 276 267 266 271 269 263 263 267 271 274 277 283 290 292 291 290 283 278 282 288 290 290 290 291
339 337 335 334 333 331 330 331 332 330 327 325 319 310 302 296 294 293 292 292 292 291 290 290 290 289 289 290 290 290 290 292 294 293 292 292 289 285 281 276 269 266 269 269 267 270 276 279 281 284 285 286 288 292 291 281 275 278 285 292 294 290 290
336 335 333 333 333 331 329 329 330 328 324 320 314 308 303 301 300 300 299 299 299 299 299 298 296 294 293 292 292 293 295 295 294 291 289 288 287 284 281 277 271 265 266 269 267 268 272 272 270 268 267 266 268 274 281 282 280 279 281 288 289 285 288
332 331 332 331 331 329 326 324 325 323 318 315 310 306 303 303 303 302 302 304 305 305 305 303 302 299 295 294 295 296 298 298 294 288 285 285 285 282 279 280 279 273 272 274 272 269 268 267 267 269 271 271 268 269 275 278 278 277 278 277 273 272 283
329 328 328 328 326 325 322 318 319 319 314 311 308 304 302 302 303 303 304 306 308 308 307 306 306 304 297 294 296 298 298 298 291 283 279 280 282 279 276 281 284 281 279 281 279 276 275 275 275 278 282 284 282 281 283 280 275 275 274 270 267 266 274
327 324 324 324 321 320 318 315 316 317 313 309 306 304 302 301 302 303 305 307 307 307 306 306 307 310 304 296 295 298 298 296 289 281 278 277 275 273 276 283 284 280 279 281 281 281 281 278 274 272 278 286 289 293 297 291 280 273 270 271 270 263 253
326 322 319 318 317 316 315 314 315 316 316 311 307 306 305 300 300 302 304 306 305 302 301 301 304 310 311 301 294 294 296 295 289 280 276 274 271 270 275 280 280 278 278 280 281 282 281 276 269 266 271 281 287 293 300 298 286 272 266 267 267 263 255
323 320 316 314 313 313 314 314 316 318 318 315 311 309 308 302 298 299 301 301 299 296 295 296 298 304 308 303 294 290 290 288 281 273 272 273 271 272 276 276 276 278 278 277 279 279 276 270 266 265 270 277 284 291 298 298 292 278 266 261 262 261 257
321 318 314 313 312 313 314 315 317 318 318 318 314 310 309 305 300 298 296 294 293 293 294 296 298 301 302 298 293 290 288 281 270 266 274 278 273 273 278 279 277 276 274 273 273 273 271 269 269 271 275 280 287 294 298 298 294 283 270 263 261 260 259
316 314 311 310 311 313 315 316 317 317 317 318 316 311 309 308 304 300 295 290 290 291 294 298 301 302 299 295 291 290 288 282 269 263 272 280 276 272 273 274 271 271 273 276 275 273 273 273 273 276 280 286 292 297 298 296 293 287 279 274 270 266 262
309 306 305 306 307 310 313 315 315 315 316 319 318 314 312 311 307 302 296 290 289 291 294 297 299 301 299 295 291 288 285 280 270 266 272 279 280 276 272 270 271 272 275 278 278 277 275 275 277 280 284 290 294 295 294 295 295 293 289 283 279 273 265
301 301 301 300 301 305 309 311 312 313 315 319 319 316 312 311 308 303 297 293 292 293 296 297 298 298 296 294 292 289 284 280 275 270 272 276 277 277 275 273 274 275 277 277 278 278 277 278 282 285 288 291 292 292 293 295 295 294 293 288 284 281 272
296 296 295 296 298 302 305 307 308 310 313 317 317 313 310 308 306 305 301 299 298 298 298 298 298 297 294 292 291 289 285 282 276 271 270 272 273 273 273 273 272 273 274 277 278 279 280 283 285 286 287 289 290 291 293 293 290 289 291 290 286 284 280
290 290 290 292 294 298 301 301 302 305 309 312 310 306 305 304 302 302 301 300 301 301 300 299 298 295 292 289 287 287 286 282 277 272 270 271 272 272 272 272 271 271 273 277 278 278 279 280 281 282 284 288 289 289 291 293 289 285 286 287 281 275 277
285 287 290 290 289 290 290 291 295 300 301 299 295 294 295 294 294 295 295 296 298 298 297 296 293 290 287 285 283 284 284 283 279 276 273 272 272 272 272 272 271 272 276 280 280 277 276 277 279 281 284 287 287 288 292 292 287 283 282 280 272 263 265
282 286 288 287 287 286 281 282 289 294 292 288 287 287 287 288 289 291 292 292 293 292 289 286 285 282 280 278 277 277 279 280 279 277 276 276 275 274 274 274 274 276 280 282 281 277 276 278 279 280 284 285 284 288 292 290 286 283 279 271 263 258 260
283 286 285 281 283 286 284 281 284 288 289 288 287 287 287 288 290 291 291 291 291 287 281 277 277 276 275 273 272 271 272 275 276 274 274 276 276 276 275 274 276 279 282 282 280 278 277 277 278 279 282 282 282 285 288 287 285 281 273 265 259 254 256
288 288 286 281 279 281 283 284 284 286 288 287 286 286 288 289 290 290 290 288 285 280 275 272 271 272 272 270 267 267 269 272 273 273 273 273 274 275 276 275 278 283 284 280 278 277 276 276 278 278 279 280 279 279 280 281 280 276 269 264 259 255 256
291 290 288 285 281 279 282 285 287 287 286 286 285 287 289 289 289 289 288 285 279 273 271 270 269 269 269 267 265 267 269 270 270 271 272 271 271 273 277 279 281 283 281 278 277 277 276 277 278 278 278 277 275 273 272 272 273 273 269 262 256 254 254
292 291 289 286 285 284 284 286 287 287 287 287 288 289 291 291 290 287 284 279 272 268 268 269 268 268 268 267 266 266 267 267 268 269 270 270 271 274 278 281 282 279 277 277 277 276 275 276 277 276 274 273 271 270 267 265 264 265 263 257 252 250 252
293 292 291 289 287 288 288 289 289 289 289 290 290 292 293 292 287 284 281 276 270 267 267 267 267 268 268 268 268 268 266 266 267 268 268 269 271 274 276 279 278 276 276 277 276 275 276 277 276 274 272 270 269 266 262 259 259 258 256 253 250 248 250
295 297 296 294 291 291 293 292 291 291 292 291 291 291 289 283 279 278 278 275 272 270 269 267 266 267 268 269 269 269 267 267 267 268 269 269 270 272 273 274 274 274 275 275 274 274 275 275 274 273 271 267 265 262 260 259 258 257 255 252 250 247 247